Location: Crescent
(42.8242°N, 73.7329°W)
Time: 20:11:14
(UTC+00:00)

SR - Pass Details

Date: 23 February 2026
Orbit: 573 x 848 km, 66.7° (Epoch: 6 March)

Event Time Altitude Azimuth Distance (km) Brightness Sun altitude
Rises 06:35:59 0° 157° (SSE) 2,765 - -51.8°
Reaches altitude 10° 06:39:44 10° 122° (ESE) 1,892 - -51.4°
Maximum altitude 06:41:00 11° 104° (ESE) 1,828 - -51.3°
Drops below altitude 10° 06:42:16 10° 87° (E) 1,918 - -51.1°
Sets 06:46:09 0° 52° (NE) 2,877 - -50.7°
